IK2ILW-6 Weather Reports


time (UTC)temp
C
wind
direction
speed
KPH
gust
KPH
rain 1hr
cm
rain 24hr
cm
rain mn
cm
humidity
%
barometer
mb
20260503072627 10 156 6.4 9.7 0.00 0.00 0.00 48 1021.9
20260503072135 10 139 6.4 16.1 0.00 0.00 0.00 47 1021.8
20260503071640 10 136 4.8 16.1 0.00 0.00 0.00 49 1021.9
20260503071125 10 121 4.8 12.9 0.00 0.00 0.00 46 1021.9
20260503070629 10 140 6.4 12.9 0.00 0.00 0.00 47 1021.9
20260503070132 10 219 4.8 12.9 0.00 0.00 0.00 44 1021.9
20260503060138 8 351 3.2 8.0 0.00 0.00 0.00 42 1021.7
20260503055125 7 314 4.8 9.7 0.00 0.00 0.00 42 1021.7
20260503054636 7 342 4.8 12.9 0.00 0.00 0.00 42 1021.7
20260503054139 7 360 4.8 11.3 0.00 0.00 0.00 42 1021.7
20260503053624 7 322 6.4 8.0 0.00 0.00 0.00 41 1021.7
20260503053133 7 333 4.8 12.9 0.00 0.00 0.00 42 1021.7
20260503052636 7 306 6.4 14.5 0.00 0.00 0.00 41 1021.7
20260503052140 7 303 11.3 14.5 0.00 0.00 0.00 41 1021.6
20260503051623 7 303 9.7 16.1 0.00 0.00 0.00 42 1021.6
20260503051127 7 308 11.3 19.3 0.00 0.00 0.00 40 1021.7
20260503050630 7 298 12.9 19.3 0.00 0.00 0.00 40 1021.7
20260503050132 7 310 11.3 16.1 0.00 0.00 0.00 41 1021.6
20260503045637 7 285 11.3 17.7 0.00 0.00 0.00 39 1021.7
20260503045141 7 344 12.9 19.3 0.00 0.00 0.00 42 1021.7
20260503044625 7 317 11.3 19.3 0.00 0.00 0.00 41 1021.7
20260503044130 7 320 12.9 17.7 0.00 0.00 0.00 40 1021.6
20260503043638 7 311 12.9 17.7 0.00 0.00 0.00 39 1021.6
20260503043123 7 305 11.3 19.3 0.00 0.00 0.00 39 1021.7
20260503042627 7 304 14.5 19.3 0.00 0.00 0.00 38 1021.7
20260503042132 7 314 14.5 17.7 0.00 0.00 0.00 39 1021.7
20260503041635 7 314 16.1 19.3 0.00 0.00 0.00 38 1021.7
20260503041140 7 305 16.1 19.3 0.00 0.00 0.00 38 1021.6
20260503040624 7 318 14.5 19.3 0.00 0.00 0.00 39 1021.7
20260503040128 7 309 14.5 17.7 0.00 0.00 0.00 40 1021.7
20260503035633 7 276 14.5 17.7 0.00 0.00 0.00 39 1021.7
20260503035137 7 321 12.9 20.9 0.00 0.00 0.00 40 1021.7
20260503034627 7 323 14.5 20.9 0.00 0.00 0.00 40 1021.7
20260503034131 7 300 12.9 24.1 0.00 0.00 0.00 40 1021.7
20260503033634 7 302 12.9 24.1 0.00 0.00 0.00 39 1021.8
20260503033138 7 329 11.3 25.7 0.00 0.00 0.00 39 1021.8
20260503032622 7 314 17.7 25.7 0.00 0.00 0.00 38 1021.8
20260503032126 7 311 12.9 20.9 0.00 0.00 0.00 33 1021.8
20260503031631 7 333 12.9 22.5 0.00 0.00 0.00 34 1021.9
20260503031136 7 328 19.3 22.5 0.00 0.00 0.00 35 1021.9
20260503030125 7 330 16.1 22.5 0.00 0.00 0.00 35 1021.8
20260503025630 7 331 12.9 20.9 0.00 0.00 0.00 35 1021.9
20260503025139 7 320 11.3 24.1 0.00 0.00 0.00 36 1022.0
20260503024623 7 331 14.5 24.1 0.00 0.00 0.00 37 1022.0
20260503024126 7 301 11.3 20.9 0.00 0.00 0.00 39 1022.0
20260503023630 7 309 16.1 20.9 0.00 0.00 0.00 39 1022.1
20260503023134 7 310 16.1 19.3 0.00 0.00 0.00 43 1022.1
20260503022639 7 315 12.9 16.1 0.00 0.00 0.00 40 1022.1
20260503022123 7 320 12.9 17.7 0.00 0.00 0.00 41 1022.2
20260503021628 7 340 12.9 17.7 0.00 0.00 0.00 44 1022.2
20260503021132 7 327 14.5 17.7 0.00 0.00 0.00 42 1022.3
20260503020635 7 338 12.9 17.7 0.00 0.00 0.00 44 1022.3
20260503020123 7 320 14.5 17.7 0.00 0.00 0.00 44 1022.3
20260503015628 6 339 14.5 16.1 0.00 0.00 0.00 53 1022.3
20260503015132 6 321 14.5 16.1 0.00 0.00 0.00 54 1022.3
20260503014637 6 320 12.9 16.1 0.00 0.00 0.00 55 1022.4
20260503014142 6 318 12.9 16.1 0.00 0.00 0.00 55 1022.3
20260503013625 6 319 11.3 14.5 0.00 0.00 0.00 55 1022.3
20260503013130 6 336 8.0 9.7 0.00 0.00 0.00 55 1022.4
20260503012634 7 350 8.0 9.7 0.00 0.00 0.00 55 1022.4
20260503012138 7 348 4.8 8.0 0.00 0.00 0.00 54 1022.5
20260503011622 7 329 6.4 8.0 0.00 0.00 0.00 55 1022.5
20260503011126 6 341 4.8 9.7 0.00 0.00 0.00 56 1022.5
20260503010635 6 331 6.4 16.1 0.00 0.00 0.00 62 1022.6
20260503010141 6 331 9.7 16.1 0.00 0.00 0.00 68 1022.6
20260503005626 6 342 9.7 12.9 0.00 0.00 0.00 66 1022.7
20260503005130 6 335 8.0 9.7 0.00 0.00 0.00 65 1022.7
20260503004633 6 332 8.0 12.9 0.00 0.00 0.00 67 1022.8
20260503004138 6 343 8.0 12.9 0.00 0.00 0.00 70 1022.8
20260503003623 6 346 6.4 9.7 0.00 0.00 0.00 70 1022.9
20260503003127 6 332 3.2 4.8 0.00 0.00 0.00 71 1023.0
20260503002632 6 277 0.0 1.6 0.00 0.00 0.00 75 1023.0
20260503002137 6 277 0.0 3.2 0.00 0.00 0.00 75 1023.0
20260503001625 6 277 1.6 3.2 0.00 0.00 0.00 71 1023.1
20260503001129 6 277 1.6 4.8 0.00 0.00 0.00 69 1023.2
20260503000633 6 277 1.6 6.4 0.00 0.00 0.00 71 1023.2
20260503000138 6 247 1.6 11.3 0.00 0.00 0.00 70 1023.3
20260502235623 6 256 8.0 11.3 0.00 0.00 0.00 70 1023.3
20260502235128 6 244 6.4 8.0 0.00 0.00 0.00 70 1023.4
20260502234623 6 186 1.6 4.8 0.00 0.00 0.00 75 1023.5
20260502234129 6 255 3.2 4.8 0.00 0.00 0.00 77 1023.5
20260502233633 6 255 3.2 4.8 0.00 0.00 0.00 75 1023.6
20260502233137 6 255 3.2 4.8 0.00 0.00 0.00 77 1023.7
20260502232642 6 255 3.2 6.4 0.00 0.00 0.00 76 1023.7
20260502232125 6 255 4.8 8.0 0.00 0.00 0.00 76 1023.8
20260502231624 6 258 6.4 9.7 0.00 0.00 0.00 77 1023.8
20260502231127 6 254 1.6 4.8 0.00 0.00 0.00 78 1023.9
20260502230637 6 254 1.6 6.4 0.00 0.00 0.00 76 1023.9
20260502230142 6 254 4.8 6.4 0.00 0.00 0.00 78 1023.9
20260502225627 6 130 3.2 3.2 0.00 0.00 0.00 77 1023.9
20260502225130 6 101 1.6 3.2 0.00 0.00 0.00 77 1023.9
20260502224634 6 101 0.0 1.6 0.00 0.00 0.00 76 1023.9
20260502224138 6 101 0.0 3.2 0.00 0.00 0.00 77 1023.9
20260502223623 6 101 1.6 3.2 0.00 0.00 0.00 76 1023.9
20260502223128 6 101 1.6 1.6 0.00 0.00 0.00 76 1024.0
20260502222632 6 101 0.0 1.6 0.00 0.00 0.00 76 1024.0
20260502222137 6 101 0.0 3.2 0.00 0.00 0.00 75 1024.0
20260502221626 6 101 1.6 3.2 0.00 0.00 0.00 75 1024.0
20260502221130 6 101 0.0 3.2 0.00 0.00 0.00 75 1024.0
20260502220634 6 101 1.6 3.2 0.00 0.00 0.00 73 1024.1
20260502220139 6 101 1.6 4.8 0.00 0.00 0.00 73 1024.1
20260502215623 6 101 0.0 3.2 0.00 0.00 0.00 71 1024.1
20260502215129 6 101 1.6 3.2 0.00 0.00 0.00 71 1024.0
20260502214633 7 101 1.6 4.8 0.00 0.00 0.00 68 1024.1
20260502214137 7 101 3.2 4.8 0.00 0.00 0.00 68 1024.1
20260502213641 7 101 1.6 6.4 0.00 0.00 0.00 62 1024.1
20260502213125 7 75 3.2 6.4 0.00 0.00 0.00 55 1024.0
20260502212630 7 80 4.8 6.4 0.00 0.00 0.00 60 1024.0
20260502212139 7 88 4.8 6.4 0.00 0.00 0.00 64 1024.0
20260502211623 7 92 4.8 6.4 0.00 0.00 0.00 63 1024.0
20260502211128 7 69 3.2 4.8 0.00 0.00 0.00 59 1024.1
20260502210632 7 76 3.2 4.8 0.00 0.00 0.00 61 1024.1
20260502210136 7 71 3.2 4.8 0.00 0.00 0.00 59 1024.2
20260502205636 6 96 3.2 4.8 0.00 0.00 0.00 60 1024.3
20260502205136 7 94 1.6 3.2 0.00 0.00 0.00 63 1024.3
20260502204632 7 94 1.6 3.2 0.00 0.00 0.00 64 1024.3
20260502204134 7 94 1.6 3.2 0.00 0.00 0.00 63 1024.3
20260502203642 7 94 0.0 6.4 0.00 0.00 0.00 62 1024.4
20260502203133 7 94 3.2 6.4 0.00 0.00 0.00 61 1024.4
20260502202636 7 91 3.2 8.0 0.00 0.00 0.00 62 1024.4
20260502202140 7 81 4.8 8.0 0.00 0.00 0.00 62 1024.3
20260502201628 7 62 4.8 9.7 0.00 0.00 0.00 62 1024.4
20260502201129 7 69 3.2 6.4 0.00 0.00 0.00 65 1024.4
20260502200629 7 59 3.2 8.0 0.00 0.00 0.00 61 1024.4
20260502200133 7 71 6.4 9.7 0.00 0.00 0.00 59 1024.4
20260502195638 7 76 3.2 9.7 0.00 0.00 0.00 61 1024.4
20260502195122 7 69 4.8 9.7 0.00 0.00 0.00 65 1024.4
20260502194626 7 70 3.2 6.4 0.00 0.00 0.00 67 1024.4
20260502194128 7 57 1.6 6.4 0.00 0.00 0.00 70 1024.4
20260502193632 7 44 3.2 4.8 0.00 0.00 0.00 69 1024.4
20260502193133 7 65 3.2 4.8 0.00 0.00 0.00 72 1024.4
20260502192637 7 97 0.0 1.6 0.00 0.00 0.00 74 1024.5
20260502192124 7 97 0.0 3.2 0.00 0.00 0.00 74 1024.5
20260502191628 7 97 1.6 3.2 0.00 0.00 0.00 73 1024.5
20260502191132 7 97 1.6 3.2 0.00 0.00 0.00 73 1024.4
20260502190637 7 61 0.0 4.8 0.00 0.00 0.00 73 1024.4
20260502190123 7 61 1.6 6.4 0.00 0.00 0.00 73 1024.4
20260502185627 7 65 3.2 6.4 0.00 0.00 0.00 73 1024.4
20260502185130 7 59 0.0 3.2 0.00 0.00 0.00 73 1024.3
20260502184633 7 59 1.6 3.2 0.00 0.00 0.00 73 1024.3
20260502184137 7 59 0.0 3.2 0.00 0.00 0.00 72 1024.2
20260502183640 7 59 1.6 3.2 0.00 0.00 0.00 72 1024.2
20260502183136 8 5 1.6 3.2 0.00 0.00 0.00 71 1024.2
20260502182635 8 5 1.6 3.2 0.00 0.00 0.00 71 1024.1
20260502182124 8 5 1.6 3.2 0.00 0.00 0.00 72 1024.1
20260502181629 8 5 0.0 4.8 0.00 0.00 0.00 72 1024.1
20260502181133 8 5 1.6 6.4 0.00 0.00 0.00 73 1024.0
20260502180638 7 355 4.8 6.4 0.00 0.00 0.00 73 1024.0
20260502180122 8 325 6.4 6.4 0.00 0.00 0.00 73 1024.0
20260502170125 10 160 3.2 6.4 0.00 0.00 0.00 66 1024.1
20260502164122 10 180 0.0 4.8 0.00 0.00 0.00 66 1024.3
20260502163630 10 180 3.2 8.0 0.00 0.00 0.00 66 1024.3
20260502163135 10 256 3.2 8.0 0.00 0.00 0.00 67 1024.3
20260502162638 10 206 3.2 6.4 0.00 0.00 0.00 67 1024.4
20260502162123 10 198 1.6 9.7 0.00 0.00 0.00 67 1024.4
20260502161628 10 243 3.2 11.3 0.00 0.00 0.00 68 1024.5
20260502161133 10 201 3.2 9.7 0.00 0.00 0.00 68 1024.6
20260502160638 10 257 4.8 8.0 0.00 0.00 0.00 68 1024.6
20260502160122 10 233 0.0 11.3 0.00 0.00 0.00 69 1024.6
20260502152138 10 196 4.8 12.9 0.00 0.00 0.00 68 1024.8
20260502151622 10 189 8.0 12.9 0.00 0.00 0.00 69 1024.8
20260502151126 10 130 3.2 17.7 0.00 0.00 0.00 69 1024.8
20260502150630 10 166 8.0 17.7 0.00 0.00 0.00 69 1024.9
20260502150135 10 209 6.4 16.1 0.00 0.00 0.00 68 1024.9
20260502130636 10 113 8.0 16.1 0.00 0.00 0.00 71 1025.7
20260502130124 9 124 6.4 16.1 0.00 0.00 0.00 74 1025.7
20260502123624 9 175 8.0 16.1 0.00 0.00 0.00 74 1025.9
20260502123129 9 180 8.0 16.1 0.00 0.00 0.00 75 1025.8
20260502122634 8 167 6.4 20.9 0.00 0.00 0.00 71 1025.8
20260502122138 10 195 11.3 20.9 0.00 0.00 0.00 72 1025.9
20260502121623 10 217 11.3 16.1 0.00 0.00 0.00 71 1025.9
20260502121127 10 217 11.3 16.1 0.00 0.00 0.00 71 1025.9
20260502120630 10 188 8.0 19.3 0.00 0.00 0.00 69 1025.9
20260502120135 10 163 9.7 19.3 0.00 0.00 0.00 72 1025.9
20260502115637 9 144 8.0 16.1 0.00 0.00 0.00 71 1026.0
20260502115138 8 184 9.7 17.7 0.00 0.00 0.00 75 1026.1
20260502114633 8 230 9.7 22.5 0.00 0.00 0.00 74 1026.0
20260502114137 9 176 9.7 22.5 0.00 0.00 0.00 75 1026.2
20260502113641 8 186 9.7 22.5 0.00 0.00 0.00 75 1026.3
20260502113126 8 205 11.3 24.1 0.00 0.00 0.00 73 1026.2
20260502112629 8 229 16.1 24.1 0.00 0.00 0.00 75 1026.2
20260502112131 8 162 6.4 20.9 0.00 0.00 0.00 73 1026.2
20260502111635 8 223 9.7 17.7 0.00 0.00 0.00 77 1026.3
20260502111122 8 252 12.9 17.7 0.00 0.00 0.00 72 1026.4
20260502110626 8 207 11.3 17.7 0.00 0.00 0.00 73 1026.4
20260502110138 8 168 9.7 17.7 0.00 0.00 0.00 73 1026.5
20260502105643 9 205 11.3 19.3 0.00 0.00 0.00 70 1026.6
20260502105130 8 187 8.0 19.3 0.00 0.00 0.00 76 1026.6
20260502104624 8 205 11.3 20.9 0.00 0.00 0.00 72 1026.6
20260502104131 9 182 12.9 24.1 0.00 0.00 0.00 70 1026.7
20260502103635 8 207 8.0 24.1 0.00 0.00 0.00 73 1026.6
20260502103140 8 134 9.7 16.1 0.00 0.00 0.00 73 1026.6
20260502102626 8 28 9.7 19.3 0.00 0.00 0.00 70 1026.6
20260502102129 8 190 11.3 19.3 0.00 0.00 0.00 71 1026.7
20260502101633 8 175 9.7 20.9 0.00 0.00 0.00 72 1026.6
20260502101137 8 165 8.0 20.9 0.00 0.00 0.00 73 1026.7
20260502100641 8 186 6.4 24.1 0.00 0.00 0.00 73 1026.6
20260502100141 8 133 8.0 24.1 0.00 0.00 0.00 75 1026.6
20260502091124 8 148 12.9 20.9 0.00 0.00 0.00 72 1026.7
20260502090629 8 209 6.4 19.3 0.00 0.00 0.00 71 1026.8
20260502090139 8 166 8.0 19.3 0.00 0.00 0.00 71 1026.7